Location: Bishop's University Astronomical Observatory
(45.3661°N, 71.8475°W)
Time: 04:30:14
(UTC-04:00)

CZ-4C R/B - Visible Passes

Search period start: 26 October 2014 00:00
Search period end: 04 November 2014 23:00
Orbit: 786 x 1217 km, 63.4° (Epoch: 23 October)

Date Brightness Start Highest point End Pass type
(mag) Time Alt. Az. Time Alt. Az. Time Alt. Az.
26 Oct 5.2 02:18:11 13° NNE 02:18:11 13° NNE 02:19:20 10° NE visible
26 Oct 4.5 04:03:24 17° N 04:06:39 24° NNE 04:12:16 10° ENE visible
26 Oct 3.1 05:49:38 10° NW 05:56:27 68° NE 06:03:53 10° SE visible
27 Oct 4.9 02:51:07 17° NNE 02:51:07 17° NNE 02:54:44 10° NE visible
27 Oct 4.0 04:36:20 16° NNW 04:41:03 36° NE 04:47:42 10° ESE visible
27 Oct 2.8 06:23:17 10° NW 06:30:10 70° WSW 06:37:38 10° SSE visible
28 Oct 4.5 03:24:08 21° N 03:25:11 22° NNE 03:30:31 10° ENE visible
28 Oct 3.3 05:09:21 15° NNW 05:15:09 59° NE 05:22:29 10° SE visible
29 Oct 5.2 02:12:01 12° NE 02:12:01 12° NE 02:13:00 10° NE visible
29 Oct 4.1 03:57:15 26° N 03:59:40 32° NE 04:06:04 10° E visible
29 Oct 2.7 05:42:28 12° NW 05:48:56 81° SW 05:56:28 10° SSE visible
30 Oct 4.8 02:45:14 19° NE 02:45:14 19° NE 02:48:44 10° ENE visible
30 Oct 3.4 04:30:28 29° NNW 04:33:50 51° NE 04:41:02 10° ESE visible
30 Oct 3.2 06:15:54 10° NW 06:22:27 44° WSW 06:29:29 10° S visible
31 Oct 4.3 03:18:35 29° NE 03:18:35 29° NE 03:24:23 10° E visible
31 Oct 2.7 05:03:49 30° NW 05:07:42 88° NE 05:15:14 10° SE visible
31 Oct 4.0 06:50:27 10° WNW 06:55:41 23° WSW 07:01:11 10° SSW visible
31 Oct 4.3 20:26:05 10° SSW 20:26:49 14° SSW 20:26:49 14° SSW visible
01 Nov 5.4 02:06:48 10° ENE 02:06:48 10° ENE 02:06:57 10° ENE visible
01 Nov 3.5 03:52:04 45° NNE 03:52:29 45° NE 03:59:32 10° ESE visible
01 Nov 3.0 05:37:19 25° WNW 05:41:17 52° WSW 05:48:31 10° SSE visible
01 Nov 3.7 19:13:16 10° SSE 19:15:22 17° SE 19:15:22 17° SE visible
01 Nov 4.3 20:59:27 10° SW 21:00:38 17° SW 21:00:38 17° SW visible
02 Nov 4.9 01:40:26 18° ENE 01:40:26 18° ENE 01:42:41 10° E visible
02 Nov 2.8 03:25:41 70° N 03:26:26 77° NE 03:33:56 10° SE visible
02 Nov 3.7 05:10:57 18° WNW 05:14:35 27° WSW 05:20:37 10° SSW visible
02 Nov 2.8 18:45:05 10° S 18:49:07 40° SSE 18:49:07 40° SSE visible
02 Nov 4.8 20:33:40 10° WSW 20:34:23 14° WSW 20:34:23 14° WSW visible
03 Nov 4.4 02:14:11 28° E 02:14:11 28° E 02:17:59 10° ESE visible
03 Nov 2.7 03:59:27 59° W 04:00:05 61° WSW 04:07:28 10° SSE visible
03 Nov 4.4 05:44:58 10° W 05:47:36 12° WSW 05:50:16 10° SW visible
03 Nov 3.7 17:32:52 10° SE 17:36:12 16° ESE 17:37:29 15° E visible
03 Nov 2.5 19:18:12 10° SW 19:22:45 63° SW 19:22:45 63° SW visible
04 Nov 3.8 02:48:03 39° ESE 02:48:03 39° ESE 02:52:35 10° SE visible
04 Nov 3.5 04:33:20 32° WSW 04:33:28 32° WSW 04:39:55 10° S visible
04 Nov 2.7 18:04:10 10° S 18:09:11 38° ESE 18:11:01 30° ENE visible
04 Nov 3.5 19:52:12 10° WSW 19:56:15 39° WNW 19:56:15 39° WNW visible
